Погода в Красноярке

Россия / Новосибирская область     55°32′07″N   76°18′15″E
темп.,
°C
ветер,
м/с
пор.,
м/с
влажн.,
%
обл.,
%
осадки,
мм/ч
давл.,
гПа
погр.,
м
19 сентября, вс
вс1901:00+7юз4966100 0.1 1006377
04:00+6ююв4892100 1.9 1003885
07:00+6юз51092100 3.1 10011037
10:00+7юз71088100 0.6 1000990
13:00+7зсз698295 1.2 1002765
16:00+9з8106476 0.4 10031403
19:00+7з610625 0.5 10041164
22:00+4зюз61272100 0.0 1005589
20 сентября, пн
пн2001:00+3зюз61296100 0.1 1005710
04:00+2зюз4109699 0.3 1006677
07:00+2зюз61295100 0.4 1007793
10:00+3зюз61196100 0.3 1008735
13:00+4з81184100 0.8 1009961
16:00+3з61195100 0.7 1011809
19:00+4зсз61085100 0.9 1013831
22:00+1з5119576 0.1 1014392
21 сентября, вт
вт2101:00+3зсз61196100 0.1 1015652
04:00+3зсз61197100 0.0 1016646
07:00+3сз61190100 0.1 1017726
10:00+3зсз5996100 0.2 1019699
13:00+5сз7875100 0.5 10201145
16:00+4зсз6878100 0.3 1020969
19:00+4сз5877100 0.6 1021888
22:00+3зсз488497 0.1 1022522
22 сентября, ср
ср2201:000зсз4891100 0.1 1022232
04:000з3789100 0.0 1022290
07:00+1з379383 0.0 1022312
10:00+2з4792100 0.1 1021485
13:00+3з4692100 0.1 1021736
16:00+4з5780100 0.1 1020815
19:00+5з4780100 0.3 1020784
22:00+3сз4797100 0.6 1020461
23 сентября, чт
чт2301:00+2сз4795100 0.9 1021527
04:00+2сз3798100 0.1 1021370
07:00+1ссз5995100 0.6 1023478
10:00+2ссз5785100 0.0 1024711
13:00+4с5664100 0.1 10251321
16:00+3ссз5665100 0.0 10271071
19:00+3ссз4772100 0.0 1028619
22:00+2сз3675100 0.0 1030256